Location: Diebersbach
(48.5163°N, 8.0558°E)
Time: 09:19:13
(UTC+00:00)

X-37B - Pass Details

Date: 20 June 2021
Orbit: 383 x 392 km, 45.0° (Epoch: 01 July)

Event Time Altitude Azimuth Distance (km) Brightness Sun altitude
Exits shadow 00:28:43 34° 134° (SE) 659 1.5 -16.8°
Drops below altitude 10° 00:30:54 10° 103° (ESE) 1,406 3.4 -16.7°
Sets 00:33:01 0° 97° (E) 2,262 4.6 -16.6°
